This is the latest recevied weather packets stored in our database for station/object EA3EH-1. If no packets are shown the sender has not sent any weather packets the latest 10 day(s).
| Time | Temp. | Humidity | Pressure | Rain* | Wind** | Luminosity | Snow |
|---|---|---|---|---|---|---|---|
| 1777559505 | 25.56° C | 12% | 1014 hPa | 0 mm | - | - | - |
| 1777559204 | 25.56° C | 12% | 1014 hPa | 0 mm | - | - | - |
| 1777558306 | 25.56° C | 12% | 1014 hPa | 0 mm | - | - | - |
| 1777557706 | 25° C | 13% | 1014 hPa | 0 mm | - | - | - |
| 1777556509 | 25.56° C | 12% | 1014 hPa | 0 mm | - | - | - |
| 1777556206 | 25° C | 13% | 1014 hPa | 0 mm | - | - | - |
| 1777555906 | 25° C | 13% | 1014 hPa | 0 mm | - | - | - |
| 1777555605 | 25° C | 12% | 1014 hPa | 0 mm | - | - | - |
| 1777555304 | 25° C | 15% | 1014 hPa | 0 mm | - | - | - |
| 1777554106 | 25° C | 15% | 1014 hPa | 0 mm | - | - | - |
| 1777553509 | 23.89° C | 15% | 1014 hPa | 0 mm | - | - | - |
| 1777551405 | 22.78° C | 21% | 1014 hPa | 0 mm | - | - | - |
| 1777551104 | 22.78° C | 21% | 1014 hPa | 0 mm | - | - | - |
| 1777550505 | 22.22° C | 18% | 1014 hPa | 0 mm | - | - | - |
| 1777550205 | 22.22° C | 18% | 1014 hPa | 0 mm | - | - | - |
| 1777549004 | 21.11° C | 22% | 1014 hPa | 0 mm | - | - | - |
| 1777548405 | 21.67° C | 22% | 1014 hPa | 0 mm | - | - | - |
| 1777547805 | 22.22° C | 22% | 1014 hPa | 0 mm | - | - | - |
| 1777547504 | 22.22° C | 19% | 1014 hPa | 0 mm | - | - | - |
| 1777547205 | 21.67° C | 19% | 1014 hPa | 0 mm | - | - | - |
| 1777546904 | 21.67° C | 16% | 1014 hPa | 0 mm | - | - | - |
| 1777546306 | 22.78° C | 16% | 1014 hPa | 0 mm | - | - | - |
| 1777546006 | 22.78° C | 16% | 1014 hPa | 0 mm | - | - | - |
| 1777545406 | 22.22° C | 13% | 1014 hPa | 0 mm | - | - | - |
| 1777545105 | 22.22° C | 14% | 1014 hPa | 0 mm | - | - | - |
* Rain latest hour (hover to see other rain measurements)
** Current wind speed in m/s (hover to see current wind gust speed)